Home   Weather   Bretten   Past weeks

Flag for Germany Past Weather in Bretten, Baden-Württemberg, Germany — Yesterday and Last 2 Weeks

Now
25 °F

Passing clouds.


Feels Like: 13 °F
Forecast: 15 / 25 °F
Wind: 13 mph from Northeast

Location: Karlsruhe - Baden Wurttemberg

Current Time: Jan 24, 2017 at 10:39:36 pm

Latest Report: Jan 24, 2017 at 10:20 pm


Visibility: 6 mi

Pressure: 30.39 "Hg

Humidity: 93%

Dew Point: 23 °F

Location of BrettenLocation

Past Weather in Bretten — Graph

°F

Bretten Temperature Yesterday

Maximum temperature yesterday: 23 °F (at 12:50 pm)
Minimum temperature yesterday: 19 °F (at 5:50 am)
Average temperature yesterday: 22 °F

High & Low Weather Summary for the Past Weeks

 TemperatureHumidityPressure
High46 °F (Jan 12, 11:20 pm)100% (Jan 10, 5:20 am)30.54 "Hg (Jan 10, 5:20 am)
Low10 °F (Jan 21, 7:20 am)55% (Jan 17, 3:50 pm)29.33 "Hg (Jan 12, 11:50 pm)
Average29 °F88%30.20 "Hg
* Reported Jan 9 9:20 pm — Jan 24 9:20 pm, Bretten, Weather by CustomWeather, © 2017

Note: Actual official high and low records may vary slightly from our data, if they occured in-between our weather recording intervals... More about our weather records

Advertising

Bretten Weather History for the Previous 24 Hours

Scroll right to see more
 ConditionsComfort  
Time TempWeatherWind HumidityBarometerVisibility
9:20 pm
Tue, Jan 24
25 °FIce fog.13 mph93%30.39 "Hg3 mi
8:50 pm25 °FIce fog.13 mph93%30.39 "Hg3 mi
8:20 pm25 °FIce fog.10 mph93%30.39 "Hg2 mi
7:50 pm25 °FIce fog.13 mph93%30.39 "Hg2 mi
7:20 pm25 °FIce fog.12 mph93%30.39 "Hg2 mi
6:50 pm25 °FIce fog.8 mph93%30.39 "Hg2 mi
6:20 pm25 °FIce fog.9 mph93%30.39 "Hg2 mi
5:50 pm25 °FIce fog.9 mph93%30.39 "Hg2 mi
5:20 pm25 °FIce fog.12 mph100%30.36 "Hg1 mi
4:50 pm25 °FSnow flurries. Ice fog.10 mph100%30.36 "Hg1 mi
4:20 pm25 °FSnow flurries. Ice fog.9 mph100%30.36 "Hg1 mi
3:50 pm25 °FSnow flurries. Ice fog.8 mph100%30.36 "Hg3 mi
3:20 pm25 °FSnow flurries. Ice fog.8 mph100%30.36 "Hg3 mi
2:50 pm27 °FSnow flurries. Ice fog.8 mph100%30.33 "Hg2 mi
2:20 pm27 °FSnow flurries. Ice fog.7 mph100%30.33 "Hg1 mi
1:50 pm27 °FSnow flurries. Ice fog.2 mphN/A30.33 "Hg2 mi
1:22 pm27 °FLight snow. Low clouds.3 mph100%30.33 "Hg2 mi
1:20 pm27 °FIce fog.3 mph100%30.33 "Hg1 mi
12:50 pm25 °FIce fog.3 mph100%30.36 "Hg1 mi
12:20 pm25 °FIce fog.3 mph100%30.36 "Hg1 mi
11:50 am25 °FIce fog.3 mph100%30.36 "Hg1 mi
11:20 am25 °FIce fog.3 mph100%30.36 "Hg1 mi
10:50 am25 °FIce fog.5 mph100%30.36 "Hg1 mi
10:20 am25 °FIce fog.5 mph100%30.36 "Hg1 mi
9:50 am25 °FIce fog.5 mph100%30.33 "Hg1 mi
9:20 am23 °FIce fog.5 mph100%30.33 "Hg1 mi
8:50 am23 °FIce fog.3 mph100%30.33 "Hg1 mi
8:20 am23 °FIce fog.3 mph100%30.33 "Hg1 mi
7:50 am23 °FIce fog.3 mph100%30.33 "Hg1 mi
7:20 am23 °FLight freezing rain. Ice fog.3 mph100%30.33 "Hg1 mi
6:50 am23 °FLight freezing rain. Ice fog.2 mph100%30.30 "Hg1 mi
6:20 am23 °FIce fog.2 mph100%30.30 "Hg1 mi
5:50 am23 °FIce fog.2 mph100%30.30 "Hg1 mi
5:20 am23 °FIce fog.2 mph100%30.30 "Hg2 mi
4:50 am23 °FIce fog.2 mph100%30.30 "Hg1 mi
10:50 pm
Mon, Jan 23
21 °FIce fog.3 mph100%30.30 "Hg1 mi
10:20 pm21 °FIce fog.3 mph100%30.30 "Hg1 mi
Weather by CustomWeather, © 2017

See weather overviewHow to use our weather pages